TimeCDT,TemperatureF,Dew PointF,Humidity,Sea Level PressureIn,VisibilityMPH,Wind Direction,Wind SpeedMPH,Gust SpeedMPH,PrecipitationIn,Events,Conditions,WindDirDegrees,DateUTC
12:15 AM,69.1,64.2,84,29.66,10.0,Calm,Calm,-,N/A,,Clear,0,2013-07-05 05:15:00
12:35 AM,68.4,63.1,83,29.66,10.0,Calm,Calm,-,N/A,,Clear,0,2013-07-05 05:35:00
12:55 AM,68.0,62.4,82,29.67,10.0,Calm,Calm,-,N/A,,Clear,0,2013-07-05 05:55:00
1:15 AM,68.9,61.2,76,29.66,10.0,Calm,Calm,-,N/A,,Clear,0,2013-07-05 06:15:00
1:35 AM,66.6,63.0,88,29.67,7.0,Calm,Calm,-,N/A,,Clear,0,2013-07-05 06:35:00
1:55 AM,66.7,62.8,87,29.66,10.0,Calm,Calm,-,N/A,,Clear,0,2013-07-05 06:55:00
2:15 AM,66.2,62.8,89,29.66,7.0,Calm,Calm,-,N/A,,Clear,0,2013-07-05 07:15:00
2:35 AM,66.0,62.6,89,29.66,7.0,Calm,Calm,-,N/A,,Clear,0,2013-07-05 07:35:00
2:55 AM,65.7,62.4,89,29.66,7.0,Calm,Calm,-,N/A,,Clear,0,2013-07-05 07:55:00
3:15 AM,64.9,62.2,91,29.66,7.0,Calm,Calm,-,N/A,,Clear,0,2013-07-05 08:15:00
3:35 AM,64.9,62.1,90,29.66,7.0,Calm,Calm,-,N/A,,Clear,0,2013-07-05 08:35:00
3:55 AM,64.4,61.5,90,29.66,7.0,Calm,Calm,-,N/A,,Clear,0,2013-07-05 08:55:00
4:15 AM,64.6,61.2,89,29.66,10.0,Calm,Calm,-,N/A,,Clear,0,2013-07-05 09:15:00
4:35 AM,64.4,61.2,89,29.66,7.0,Calm,Calm,-,N/A,,Clear,0,2013-07-05 09:35:00
4:55 AM,63.9,61.0,90,29.66,7.0,Calm,Calm,-,N/A,,Clear,0,2013-07-05 09:55:00
5:15 AM,63.5,61.2,92,29.66,7.0,Calm,Calm,-,N/A,,Clear,0,2013-07-05 10:15:00
5:35 AM,63.1,60.8,92,29.67,7.0,Calm,Calm,-,N/A,,Clear,0,2013-07-05 10:35:00
5:55 AM,62.8,60.6,93,29.67,7.0,Calm,Calm,-,N/A,,Clear,0,2013-07-05 10:55:00
6:15 AM,62.6,60.3,92,29.68,5.0,Calm,Calm,-,N/A,,Clear,0,2013-07-05 11:15:00
6:35 AM,63.1,60.8,92,29.68,7.0,Calm,Calm,-,N/A,,Clear,0,2013-07-05 11:35:00
6:55 AM,63.5,60.6,90,29.68,7.0,Calm,Calm,-,N/A,,Clear,0,2013-07-05 11:55:00
7:15 AM,64.8,61.7,90,29.69,7.0,Calm,Calm,-,N/A,,Clear,0,2013-07-05 12:15:00
7:35 AM,66.7,62.6,86,29.69,10.0,Calm,Calm,-,N/A,,Clear,0,2013-07-05 12:35:00
7:55 AM,70.2,61.7,74,29.71,10.0,Calm,Calm,-,N/A,,Clear,0,2013-07-05 12:55:00
8:15 AM,73.2,60.4,64,29.71,10.0,Calm,Calm,-,N/A,,Clear,0,2013-07-05 13:15:00
8:35 AM,76.6,61.0,58,29.71,10.0,Calm,Calm,-,N/A,,Clear,0,2013-07-05 13:35:00
8:55 AM,78.8,59.2,51,29.72,10.0,SSE,3.5,-,N/A,,Clear,160,2013-07-05 13:55:00
9:35 AM,82.2,57.0,42,29.72,10.0,SSE,5.8,-,N/A,,Clear,160,2013-07-05 14:35:00
9:55 AM,83.7,57.9,41,29.72,10.0,SSE,3.5,-,N/A,,Clear,150,2013-07-05 14:55:00
10:15 AM,85.1,57.4,39,29.71,10.0,SE,5.8,-,N/A,,Clear,140,2013-07-05 15:15:00
10:35 AM,85.3,57.9,39,29.71,10.0,Calm,Calm,-,N/A,,Clear,0,2013-07-05 15:35:00
10:55 AM,86.5,57.7,37,29.71,10.0,SSE,3.5,-,N/A,,Clear,160,2013-07-05 15:55:00
11:15 AM,88.0,57.4,35,29.71,10.0,SSE,4.6,-,N/A,,Clear,150,2013-07-05 16:15:00
11:35 AM,88.3,56.7,34,29.71,10.0,South,5.8,-,N/A,,Clear,190,2013-07-05 16:35:00
11:55 AM,89.8,55.8,31,29.70,10.0,Calm,Calm,-,N/A,,Clear,0,2013-07-05 16:55:00
12:15 PM,89.8,55.4,31,29.70,10.0,Calm,Calm,-,N/A,,Clear,0,2013-07-05 17:15:00
12:35 PM,91.8,54.7,28,29.70,10.0,NE,3.5,-,N/A,,Clear,50,2013-07-05 17:35:00
12:55 PM,93.2,54.0,26,29.69,10.0,East,3.5,-,N/A,,Clear,80,2013-07-05 17:55:00
1:15 PM,92.3,53.8,27,29.69,10.0,Calm,Calm,-,N/A,,Clear,0,2013-07-05 18:15:00
1:35 PM,93.0,54.3,27,29.68,10.0,Calm,Calm,-,N/A,,Clear,0,2013-07-05 18:35:00
1:55 PM,94.1,52.3,24,29.68,10.0,ESE,5.8,-,N/A,,Clear,120,2013-07-05 18:55:00
2:15 PM,93.9,52.7,25,29.67,10.0,ENE,9.2,-,N/A,,Scattered Clouds,70,2013-07-05 19:15:00
2:35 PM,93.6,51.8,24,29.67,10.0,ENE,4.6,-,N/A,,Scattered Clouds,60,2013-07-05 19:35:00
2:55 PM,93.9,50.2,22,29.66,10.0,East,5.8,17.3,N/A,,Clear,100,2013-07-05 19:55:00
3:15 PM,94.3,50.9,23,29.65,10.0,Calm,Calm,-,N/A,,Clear,0,2013-07-05 20:15:00
3:35 PM,94.1,52.9,25,29.65,10.0,East,9.2,-,N/A,,Scattered Clouds,90,2013-07-05 20:35:00
3:55 PM,93.9,53.4,25,29.64,10.0,ENE,8.1,-,N/A,,Scattered Clouds,70,2013-07-05 20:55:00
4:15 PM,94.3,53.1,25,29.63,10.0,ENE,5.8,-,N/A,,Scattered Clouds,60,2013-07-05 21:15:00
4:35 PM,93.9,53.6,25,29.63,10.0,East,10.4,17.3,N/A,,Clear,80,2013-07-05 21:35:00
4:55 PM,93.9,52.9,25,29.62,10.0,East,6.9,16.1,N/A,,Clear,90,2013-07-05 21:55:00
5:15 PM,94.6,53.6,25,29.61,10.0,ENE,9.2,-,N/A,,Clear,70,2013-07-05 22:15:00
5:35 PM,93.7,53.6,26,29.61,10.0,East,10.4,-,N/A,,Clear,80,2013-07-05 22:35:00
5:55 PM,93.2,53.1,26,29.61,10.0,East,10.4,-,N/A,,Clear,90,2013-07-05 22:55:00
6:15 PM,92.3,52.7,26,29.60,10.0,East,9.2,-,N/A,,Clear,100,2013-07-05 23:15:00
6:35 PM,91.4,53.1,27,29.60,10.0,East,6.9,-,N/A,,Clear,100,2013-07-05 23:35:00
6:55 PM,90.7,52.9,28,29.61,10.0,East,9.2,-,N/A,,Clear,100,2013-07-05 23:55:00
7:15 PM,90.0,53.1,28,29.61,10.0,ESE,6.9,-,N/A,,Clear,110,2013-07-06 00:15:00
7:35 PM,88.9,52.5,29,29.61,10.0,ESE,8.1,-,N/A,,Clear,110,2013-07-06 00:35:00
7:55 PM,87.4,52.5,30,29.62,10.0,East,5.8,-,N/A,,Clear,100,2013-07-06 00:55:00
8:15 PM,86.0,52.2,31,29.62,10.0,East,4.6,-,N/A,,Clear,100,2013-07-06 01:15:00
8:35 PM,84.4,51.6,32,29.62,10.0,East,3.5,-,N/A,,Clear,100,2013-07-06 01:35:00
8:55 PM,83.5,50.9,32,29.62,10.0,East,4.6,-,N/A,,Clear,100,2013-07-06 01:55:00
9:15 PM,82.6,50.9,33,29.62,10.0,ESE,4.6,-,N/A,,Clear,110,2013-07-06 02:15:00
9:35 PM,81.5,50.9,34,29.63,10.0,ESE,4.6,-,N/A,,Clear,110,2013-07-06 02:35:00
9:55 PM,81.0,51.6,36,29.63,10.0,ESE,5.8,-,N/A,,Clear,110,2013-07-06 02:55:00
10:15 PM,80.4,52.2,37,29.64,10.0,East,3.5,-,N/A,,Clear,100,2013-07-06 03:15:00
10:35 PM,79.3,52.9,40,29.64,10.0,ESE,4.6,-,N/A,,Clear,120,2013-07-06 03:35:00
10:55 PM,78.8,53.4,41,29.64,10.0,East,3.5,-,N/A,,Clear,100,2013-07-06 03:55:00
11:15 PM,78.1,54.0,43,29.65,10.0,East,4.6,-,N/A,,Clear,100,2013-07-06 04:15:00
11:35 PM,77.9,54.1,44,29.65,10.0,East,4.6,-,N/A,,Clear,100,2013-07-06 04:35:00
11:55 PM,77.4,54.5,45,29.65,10.0,East,3.5,-,N/A,,Clear,100,2013-07-06 04:55:00